Location: ?????
(55.6500°N, 37.2500°E)
Time: 03:02:37
(UTC+00:00)

Cosmos 1470 - Pass Details

Date: 19 May 2025
Orbit: 455 x 466 km, 82.5° (Epoch: 15 June)

Event Time Altitude Azimuth Distance (km) Brightness Sun altitude
Rises 19:53:38 0° 354° (N) 2,520 7.8 -11.8°
Reaches altitude 10° 19:55:57 10° 7° (N) 1,639 6.3 -11.9°
Maximum altitude 19:59:04 27° 68° (ENE) 934 4.0 -12.1°
Enters shadow 20:01:28 14° 121° (ESE) 1,398 4.4 -12.2°
